User: anonymous   Login
Location: Asheville, NC
(35.6000°N, 82.5500°W)
Time: 06:42:34
(UTC-04:00)
Language:

SPROUT - Orbit

View from above orbital plane
View from above orbital plane
View from above satellite
View from above satellite

Ground track
Ground track

The orbit data is extracted from the following two-line orbital elements,

1 39770U 14029E   18202.78009737  .00000450  00000-0  56442-4 0  9990
2 39770  97.8791 303.5425 0010586  94.3567 265.8857 14.86901798225503
Epoch (UTC): 21 July 2018 18:43:20
Eccentricity: 0.0010586
inclination: 97.8791°
perigee height: 600 km
apogee height: 615 km
right ascension of ascending node: 303.5425°
argument of perigee: 94.3567°
revolutions per day: 14.86901798
mean anomaly at epoch: 265.8857°
orbit number at epoch: 22550

The dashed part of the orbit path shows where the satellite is in the earth's shadow,  

DLR